• En Estados Unidos
  • Lista de países
  • Para 7 días
  • Temperatura del agua
  • Mapa Satelital
  • El tiempo en el mapa
  • Informadores
  • user-avatar
    Iniciar sesión

    Tiempo cada hora Korçe

    Hoy, 20 Enero, Sábado

    Tiempo Temperatura Precipitaciones Viento Presión Humedad
    00:00 +1°C° 0 mm 3 mps 664 mmHg 93%
    01:00 +1°C° 0 mm 3 mps 663 mmHg 95%
    02:00 +2°C° 0,2 mm 3 mps 663 mmHg 95%
    03:00 +2°C° 0,2 mm 3 mps 663 mmHg 95%
    04:00 +2°C° 0,2 mm 3 mps 663 mmHg 95%
    05:00 +2°C° 0,1 mm 3 mps 663 mmHg 95%
    06:00 +2°C° 0,1 mm 3 mps 663 mmHg 95%
    07:00 +2°C° 0 mm 3 mps 662 mmHg 95%
    08:00 +3°C° 0,1 mm 3 mps 662 mmHg 93%
    09:00 +3°C° 0,1 mm 3 mps 662 mmHg 92%
    10:00 +4°C° 0,1 mm 3 mps 663 mmHg 90%
    11:00 +4°C° 0,5 mm 3 mps 662 mmHg 89%
    12:00 +5°C° 0,5 mm 3 mps 662 mmHg 88%
    13:00 +5°C° 0,5 mm 3 mps 662 mmHg 87%
    14:00 +5°C° 0,8 mm 3 mps 662 mmHg 89%
    15:00 +4°C° 0,8 mm 3 mps 662 mmHg 90%
    16:00 +5°C° 0,8 mm 2 mps 662 mmHg 92%
    17:00 +4°C° 0,3 mm 2 mps 662 mmHg 92%
    18:00 +4°C° 0,3 mm 2 mps 662 mmHg 93%
    19:00 +4°C° 0,3 mm 2 mps 662 mmHg 94%
    20:00 +3°C° 0 mm 2 mps 662 mmHg 94%
    21:00 +3°C° 0 mm 2 mps 662 mmHg 95%
    22:00 +3°C° 0 mm 2 mps 662 mmHg 95%
    23:00 +3°C° 0 mm 2 mps 662 mmHg 95%

    Mañana, 21 Enero, Domingo

    Tiempo Temperatura Precipitaciones Viento Presión Humedad
    00:00 +2°C° 0 mm 2 mps 662 mmHg 95%
    01:00 +2°C° 0 mm 2 mps 662 mmHg 94%
    02:00 +2°C° 0 mm 2 mps 661 mmHg 94%
    03:00 +2°C° 0 mm 2 mps 661 mmHg 94%
    04:00 +2°C° 0 mm 2 mps 660 mmHg 94%
    05:00 +2°C° 0,1 mm 2 mps 660 mmHg 94%
    06:00 +2°C° 0,1 mm 2 mps 660 mmHg 94%
    07:00 +2°C° 0,1 mm 2 mps 659 mmHg 94%
    08:00 +2°C° 0,1 mm 3 mps 659 mmHg 91%
    09:00 +3°C° 0,1 mm 3 mps 659 mmHg 87%
    10:00 +4°C° 0,1 mm 3 mps 659 mmHg 84%
    11:00 +4°C° 0,6 mm 4 mps 658 mmHg 84%
    12:00 +4°C° 0,6 mm 4 mps 658 mmHg 83%
    13:00 +4°C° 0,6 mm 4 mps 657 mmHg 82%
    14:00 +3°C° 1,4 mm 3 mps 657 mmHg 86%
    15:00 +3°C° 1,4 mm 3 mps 656 mmHg 89%
    16:00 +3°C° 1,4 mm 2 mps 656 mmHg 92%
    17:00 +3°C° 0,3 mm 2 mps 656 mmHg 93%
    18:00 +3°C° 0,3 mm 2 mps 656 mmHg 94%
    19:00 +3°C° 0,3 mm 2 mps 656 mmHg 94%
    20:00 +2°C° 0 mm 2 mps 656 mmHg 95%
    21:00 +2°C° 0 mm 2 mps 656 mmHg 95%
    22:00 +2°C° 0 mm 2 mps 656 mmHg 95%
    23:00 +1°C° 0,1 mm 2 mps 657 mmHg 95%

    Pasado mañana, 22 Enero, Lunes

    Tiempo Temperatura Precipitaciones Viento Presión Humedad
    00:00 +2°C° 0,1 mm 1 mps 657 mmHg 94%
    01:00 +2°C° 0,1 mm 1 mps 657 mmHg 94%
    02:00 +1°C° 0,1 mm 2 mps 657 mmHg 93%
    03:00 -1°C° 0,1 mm 2 mps 657 mmHg 93%
    04:00 -1°C° 0,1 mm 2 mps 657 mmHg 92%
    05:00 -1°C° 0,1 mm 2 mps 657 mmHg 92%
    06:00 -2°C° 0,1 mm 2 mps 658 mmHg 91%
    07:00 -2°C° 0,1 mm 2 mps 658 mmHg 91%
    08:00 -1°C° 0 mm 3 mps 659 mmHg 84%
    09:00 -1°C° 0 mm 3 mps 659 mmHg 77%
    10:00 0°C° 0 mm 3 mps 660 mmHg 70%
    11:00 +1°C° 0 mm 3 mps 660 mmHg 67%
    12:00 0°C° 0 mm 4 mps 660 mmHg 64%
    13:00 0°C° 0 mm 4 mps 661 mmHg 61%
    14:00 +1°C° 0 mm 3 mps 661 mmHg 63%
    15:00 +1°C° 0 mm 3 mps 661 mmHg 64%
    16:00 +1°C° 0 mm 2 mps 661 mmHg 66%
    17:00 -1°C° 0 mm 2 mps 661 mmHg 70%
    18:00 -2°C° 0 mm 2 mps 662 mmHg 73%
    19:00 -3°C° 0 mm 2 mps 662 mmHg 77%
    20:00 -3°C° 0 mm 2 mps 662 mmHg 77%
    21:00 -1°C° 0 mm 1 mps 663 mmHg 77%
    22:00 -1°C° 0 mm 1 mps 663 mmHg 77%
    23:00 -1°C° 0 mm 1 mps 663 mmHg 76%

    23 Enero, Martes

    Tiempo Temperatura Precipitaciones Viento Presión Humedad
    00:00 -1°C° 0 mm 1 mps 663 mmHg 75%
    01:00 -1°C° 0 mm 1 mps 663 mmHg 74%
    02:00 -1°C° 0 mm 1 mps 663 mmHg 73%
    03:00 -1°C° 0 mm 1 mps 663 mmHg 73%
    04:00 -1°C° 0 mm 1 mps 663 mmHg 72%
    05:00 -1°C° 0 mm 1 mps 664 mmHg 72%
    06:00 -1°C° 0 mm 1 mps 664 mmHg 71%
    07:00 -1°C° 0 mm 1 mps 665 mmHg 71%
    08:00 -2°C° 0 mm 2 mps 665 mmHg 65%
    09:00 +1°C° 0 mm 2 mps 666 mmHg 59%
    10:00 +2°C° 0 mm 2 mps 667 mmHg 53%
    11:00 +3°C° 0 mm 2 mps 667 mmHg 50%
    12:00 +5°C° 0 mm 1 mps 667 mmHg 47%
    13:00 +5°C° 0 mm 1 mps 667 mmHg 44%
    14:00 +5°C° 0 mm 1 mps 667 mmHg 48%
    15:00 +4°C° 0 mm 1 mps 667 mmHg 52%
    16:00 +4°C° 0 mm 1 mps 667 mmHg 56%
    17:00 +3°C° 0 mm 1 mps 668 mmHg 58%
    18:00 +1°C° 0 mm 2 mps 668 mmHg 59%
    19:00 -1°C° 0 mm 2 mps 668 mmHg 61%
    20:00 -2°C° 0 mm 2 mps 669 mmHg 61%
    21:00 -2°C° 0 mm 2 mps 669 mmHg 62%
    22:00 -2°C° 0 mm 2 mps 669 mmHg 62%
    23:00 -3°C° 0 mm 2 mps 670 mmHg 63%

    24 Enero, Miércoles

    Tiempo Temperatura Precipitaciones Viento Presión Humedad
    00:00 -3°C° 0 mm 2 mps 670 mmHg 63%
    01:00 -3°C° 0 mm 2 mps 670 mmHg 64%
    02:00 -3°C° 0 mm 2 mps 670 mmHg 65%
    03:00 -4°C° 0 mm 2 mps 670 mmHg 66%
    04:00 -4°C° 0 mm 2 mps 670 mmHg 67%
    05:00 -4°C° 0 mm 2 mps 671 mmHg 67%
    06:00 -4°C° 0 mm 2 mps 671 mmHg 67%
    07:00 -4°C° 0 mm 2 mps 671 mmHg 67%
    08:00 -3°C° 0 mm 2 mps 672 mmHg 61%
    09:00 -1°C° 0 mm 2 mps 673 mmHg 54%
    10:00 +1°C° 0 mm 2 mps 674 mmHg 47%
    11:00 +2°C° 0 mm 2 mps 674 mmHg 45%
    12:00 +2°C° 0 mm 2 mps 674 mmHg 42%
    13:00 +4°C° 0 mm 1 mps 674 mmHg 40%
    14:00 +4°C° 0 mm 1 mps 674 mmHg 44%
    15:00 +3°C° 0 mm 1 mps 673 mmHg 48%
    16:00 +3°C° 0 mm 1 mps 673 mmHg 52%
    17:00 +2°C° 0 mm 1 mps 673 mmHg 55%
    18:00 0°C° 0 mm 1 mps 673 mmHg 57%
    19:00 -1°C° 0 mm 1 mps 673 mmHg 60%
    20:00 -1°C° 0 mm 1 mps 673 mmHg 60%
    21:00 -1°C° 0 mm 1 mps 673 mmHg 60%
    22:00 -1°C° 0 mm 1 mps 673 mmHg 60%
    23:00 -1°C° 0 mm 1 mps 673 mmHg 59%

    25 Enero, Jueves

    Tiempo Temperatura Precipitaciones Viento Presión Humedad
    00:00 -2°C° 0 mm 1 mps 672 mmHg 58%
    01:00 -2°C° 0 mm 1 mps 672 mmHg 57%
    02:00 -2°C° 0 mm 1 mps 672 mmHg 56%
    03:00 -2°C° 0 mm 1 mps 672 mmHg 54%
    04:00 -2°C° 0 mm 1 mps 671 mmHg 53%
    05:00 -2°C° 0 mm 1 mps 671 mmHg 52%
    06:00 -2°C° 0 mm 1 mps 671 mmHg 52%
    07:00 -2°C° 0 mm 1 mps 671 mmHg 51%
    08:00 0°C° 0 mm 1 mps 672 mmHg 46%
    09:00 +2°C° 0 mm 1 mps 672 mmHg 41%
    10:00 +3°C° 0 mm 1 mps 672 mmHg 36%
    11:00 +4°C° 0 mm 1 mps 672 mmHg 35%
    12:00 +5°C° 0 mm 1 mps 672 mmHg 34%
    13:00 +6°C° 0 mm 1 mps 671 mmHg 33%
    14:00 +5°C° 0 mm 1 mps 671 mmHg 39%
    15:00 +4°C° 0 mm 1 mps 671 mmHg 44%
    16:00 +3°C° 0 mm 1 mps 670 mmHg 50%
    17:00 +2°C° 0 mm 1 mps 670 mmHg 52%
    18:00 +1°C° 0 mm 1 mps 670 mmHg 54%
    19:00 0°C° 0 mm 1 mps 670 mmHg 56%
    20:00 -1°C° 0 mm 1 mps 670 mmHg 55%
    21:00 -1°C° 0 mm 1 mps 670 mmHg 55%
    22:00 -1°C° 0 mm 1 mps 670 mmHg 54%
    23:00 -1°C° 0 mm 1 mps 670 mmHg 54%
    Mostrar más